sat.trackr.live / text

‹ back to catalog

STARLINK-31643

NORAD 59388 · 2024-062Q

PAYLOAD ACTIVE UNKNOWN

§ Identity

Operator
Country
US
Launch date
2024-04-02
Launch site
AFWTR
Launch vehicle
Mass (kg)
RCS (m²)

Purposes: comms

External: N2YO · Heavens-Above · Gunter

§ Orbital elements

Epoch: 2026-09-20T21:05:47.451552Z

Period
93.85 min
Inclination
53.1643°
Eccentricity
0.0000343
Mean motion
15.34415472 rev/d
Perigee alt
462.4 km
Apogee alt
462.9 km
Semi-major
6,840.8 km
B*
1.7411e-4
RAAN
65.6313°
Arg perigee
96.5675°
Mean anomaly
263.5367°
Rev number
13,960

§ Raw data

STARLINK-316431 59388U 24062Q   26263.87902143  .00005514  00000+0  17411-3 0  99912 59388  53.1643  65.6313 0000343  96.5675 263.5367 15.34415472139606

JSON: /api/v1/satellites/59388 · /tle

For live sub-satellite position, see the globe view (requires WebGL).

§ Visibility from observer

Set your observer location to see the next 7 days of passes ≥ 10°. The values pass through the URL so the page stays shareable.

No JS? Fill the form by hand. The geolocation button needs JavaScript.